Dale Hollow Lake Weather Center

Moon Phase Calendar



Dale Hollow Lake Water Level
Online Cameras

 


      

Current Conditions in Byrdstown
4/13/2024 2:03:48 AM

47°F
Feels Like 44
Clear
Humidity
61%
Pressure
30.15"
Wind
6.9 mph (WSW)
Dew Point
34°F
UV Index
0/10 (Low)
Visibility
6 mi

Hourly Forecast

Date & Time Sat, Apr 13
2:00 AM
Sat, Apr 13
3:00 AM
Sat, Apr 13
4:00 AM
Sat, Apr 13
5:00 AM
Sat, Apr 13
6:00 AM
Sat, Apr 13
7:00 AM
Sat, Apr 13
8:00 AM
Sat, Apr 13
9:00 AM
Sat, Apr 13
10:00 AM
Sat, Apr 13
11:00 AM
Sat, Apr 13
12:00 PM
Sat, Apr 13
1:00 PM
Sat, Apr 13
2:00 PM
Sat, Apr 13
3:00 PM
Sat, Apr 13
4:00 PM
Sat, Apr 13
5:00 PM
Sat, Apr 13
6:00 PM
Sat, Apr 13
7:00 PM
Sat, Apr 13
8:00 PM
Sat, Apr 13
9:00 PM
Sat, Apr 13
10:00 PM
Sat, Apr 13
11:00 PM
Sun, Apr 14
12:00 AM
Sun, Apr 14
1:00 AM
Sun, Apr 14
2:00 AM
Sun, Apr 14
3:00 AM
Sun, Apr 14
4:00 AM
Sun, Apr 14
5:00 AM
Sun, Apr 14
6:00 AM
Sun, Apr 14
7:00 AM
Sun, Apr 14
8:00 AM
Sun, Apr 14
9:00 AM
Sun, Apr 14
10:00 AM
Sun, Apr 14
11:00 AM
Sun, Apr 14
12:00 PM
Sun, Apr 14
1:00 PM
Sun, Apr 14
2:00 PM
Sun, Apr 14
3:00 PM
Sun, Apr 14
4:00 PM
Sun, Apr 14
5:00 PM
Sun, Apr 14
6:00 PM
Sun, Apr 14
7:00 PM
Sun, Apr 14
8:00 PM
Sun, Apr 14
9:00 PM
Sun, Apr 14
10:00 PM
Sun, Apr 14
11:00 PM
Mon, Apr 15
12:00 AM
Mon, Apr 15
1:00 AM
Condition
Clear

Clear

Clear

Clear

Clear

Clear

Clear

Clear

Clear

Clear

Clear

Clear

Clear

Clear

Clear

Clear

Clear

Clear

Clear

Clear

Clear

Clear

Clear

Clear

Clear

Clear

Clear

Clouds

Clouds

Clouds

Clouds

Clouds

Clouds

Clouds

Clouds

Clouds

Clouds

Clouds

Clouds

Clouds

Clouds

Clouds

Clear

Clear

Clear

Clear

Clear

Clear
Temperature 47°F46°F45°F44°F42°F43°F48°F53°F58°F62°F65°F66°F67°F68°F68°F67°F64°F58°F55°F54°F53°F53°F53°F53°F56°F56°F56°F55°F55°F57°F61°F64°F68°F72°F73°F74°F73°F72°F72°F71°F69°F66°F64°F62°F61°F60°F60°F59°F
Feels Like 45°F44°F43°F42°F40°F41°F47°F51°F56°F60°F63°F65°F66°F66°F66°F66°F64°F57°F54°F53°F52°F52°F52°F52°F55°F55°F55°F55°F55°F57°F60°F64°F68°F71°F73°F74°F72°F71°F72°F70°F69°F66°F63°F61°F60°F59°F59°F58°F
Cloudiness 0%0%0%0%0%0%0%0%0%0%0%0%0%0%0%0%0%0%3%2%3%3%2%3%0%0%0%24%33%44%76%57%41%36%47%56%100%100%100%99%86%74%6%3%2%1%1%2%
Visibility 6 mi6 mi6 mi6 mi6 mi6 mi6 mi6 mi6 mi6 mi6 mi6 mi6 mi6 mi6 mi6 mi6 mi6 mi6 mi6 mi6 mi6 mi6 mi6 mi6 mi6 mi6 mi6 mi6 mi6 mi6 mi6 mi6 mi6 mi6 mi6 mi6 mi6 mi6 mi6 mi6 mi6 mi6 mi6 mi6 mi6 mi6 mi6 mi
Precipitation 0%0%0%0%0%0%0%0%0%0%0%0%0%0%0%0%0%0%0%0%0%0%0%0%0%0%0%0%0%0%0%0%0%0%0%0%0%0%0%0%0%0%5%0%0%0%0%0%
Humidity 61%68%74%81%87%92%83%72%57%46%42%41%41%42%45%53%66%74%78%81%85%89%91%91%85%86%88%89%88%83%79%74%66%59%53%54%57%57%58%61%66%69%73%79%81%83%83%85%
Dew Point 34°F36°F37°F38°F39°F40°F43°F44°F43°F41°F41°F42°F43°F44°F46°F50°F53°F50°F48°F48°F48°F49°F50°F50°F51°F52°F52°F52°F52°F52°F54°F56°F57°F57°F55°F56°F57°F56°F57°F56°F57°F56°F55°F55°F55°F54°F54°F54°F
Pressure 30.15"30.15"30.15"30.18"30.21"30.24"30.24"30.24"30.24"30.24"30.21"30.21"30.18"30.15"30.12"30.12"30.12"30.12"30.15"30.15"30.15"30.15"30.12"30.12"30.09"30.09"30.09"30.09"30.09"30.09"30.09"30.09"30.06"30.03"30.03"30"30"29.97"29.94"29.94"29.94"29.97"30"30"30"30"30"30"
Wind Speed 5 mph4.4 mph4.1 mph4.2 mph4.4 mph3.7 mph3 mph5.1 mph6.5 mph7.8 mph9.1 mph9.4 mph9.6 mph9 mph8 mph6.7 mph4.3 mph3.4 mph4.4 mph4.5 mph4.7 mph4.8 mph5 mph6.3 mph9.1 mph9.8 mph9.5 mph9.3 mph9.3 mph9.6 mph10.8 mph13 mph15 mph15.4 mph15.9 mph15.6 mph15.4 mph16 mph15.8 mph15.3 mph13.3 mph12 mph10.1 mph7.6 mph7.9 mph8 mph9 mph8.1 mph
Wind
Direction
226°
SW
236°
SW
232°
SW
223°
SW
221°
SW
213°
SSW
241°
WSW
259°
W
262°
W
275°
W
285°
WNW
285°
WNW
283°
WNW
281°
W
275°
W
264°
W
246°
WSW
214°
SW
186°
S
181°
S
180°
S
182°
S
186°
S
196°
SSW
211°
SSW
214°
SW
216°
SW
210°
SSW
206°
SSW
208°
SSW
214°
SW
217°
SW
222°
SW
226°
SW
231°
SW
230°
SW
231°
SW
230°
SW
230°
SW
228°
SW
230°
SW
230°
SW
227°
SW
215°
SW
218°
SW
221°
SW
223°
SW
217°
SW

Daily Forecast

Date High Low Precip. Humidity
Today
Apr 13

Clear
68 °F
42 °F
5%
42%
Sunday
Apr 14

Clouds
74 °F
53 °F
5%
53%
Monday
Apr 15

Rain
77 °F
59 °F
91%
74%
Tuesday
Apr 16

Clouds
76 °F
59 °F
0%
63%
Wednesday
Apr 17

Rain
69 °F
61 °F
100%
82%
Thursday
Apr 18

Clouds
72 °F
52 °F
68%
46%
Friday
Apr 19

Rain
55 °F
38 °F
100%
46%
Saturday
Apr 20

Clouds
54 °F
33 °F
0%
37%
Sunday
Apr 21

Clouds
60 °F
35 °F
0%
39%
Monday
Apr 22

Clouds
64 °F
39 °F
0%
41%
Tuesday
Apr 23

Clouds
67 °F
41 °F
0%
41%
Wednesday
Apr 24

Rain
65 °F
46 °F
31%
64%
Thursday
Apr 25

Clear
59 °F
37 °F
0%
38%
Friday
Apr 26

Clouds
63 °F
37 °F
0%
42%
Saturday
Apr 27

Rain
68 °F
50 °F
100%
94%
Sunday
Apr 28

Rain
68 °F
63 °F
100%
95%

Temperature 8-14 Day Outlook



Precipitation 8-14 Day Outlook




Quick Links
Dale Hollow Lake News
Dale Hollow Lake Photos
Dale Hollow Lake Videos




About Us
Contact Us
Site Map
Search Site
Advertise With Us
   
DaleHollow.USLakes.info
THE DALE HOLLOW LAKE WEBSITE

Copyright 2024, Lakes Online
Privacy    |    Legal